Location: Hawks Ness
(60.2333°N, 1.1667°W)
Time: 11:12:20
(UTC+00:00)

Cosmos 1892 Rocket - Pass Details

Date: 22 October 2019
Orbit: 605 x 634 km, 82.5° (Epoch: 18 November)

Event Time Altitude Azimuth Distance (km) Brightness Sun altitude
Rises 04:44:11 0° 182° (S) 2,899 6.9 -17.5°
Reaches altitude 10° 04:46:25 10° 179° (S) 1,992 6.1 -17.3°
Maximum altitude 04:50:46 64° 99° (E) 690 4.0 -16.7°
Drops below altitude 10° 04:55:08 10° 18° (NNE) 1,989 6.5 -16.2°
Sets 04:57:22 0° 16° (NNE) 2,894 7.3 -15.9°
